Regional Weather Roundup
Issued by NWS New Orleans/Baton Rouge, LA

Home | Current Version | Previous Version | Text Only | Print | Product List | Glossary On
Versions: 1 2 3 4 5 6 7 8 9 10 11 12 13 14 15 16 17 18 19 20 21 22 23 24 25 26 27 28 29 30 31 32 33 34 35 36 37 38 39 40 41 42 43 44 45 46 47 48 49 50
688
ASUS44 KLIX 170105
RWRLIX
NEW ORLEANS REGIONAL WEATHER ROUNDUP
NATIONAL WEATHER SERVICE NEW ORLEANS LA
800 PM CDT TUE SEP 16 2014

NOTE: "FAIR" INDICATES FEW OR NO CLOUDS BELOW 12,000 FEET WITH NO
      SIGNIFICANT WEATHER AND/OR OBSTRUCTIONS TO VISIBILITY.
      SKY/WX - SKY CONDITION AND SIGNIFICANT WEATHER.
      TMP - AIR TEMPERATURE.     DP    - DEWPOINT TEMPERATURE.
      RH  - RELATIVE HUMIDITY.   PRES  - PRESSURE.
      HI  - HEAT INDEX.          WCI   - WIND CHILL INDEX.

*  THESE STATIONS ARE NOT NWS OR FAA STATIONS AND ARE NOT UNDER
   NWS QUALITY CONTROL.

LAZ038-040-048-061>063-065>067-069-170200-
SOUTHEAST LOUISIANA

CITY           SKY/WX    TMP DP  RH WIND       PRES   REMARKS
N.O. AUDUBON   NOT AVBL
N.O. INTL ARPT CLOUDY    76  74  93 NW3       29.99F
N.O. LAKEFRONT CLOUDY    79  75  87 W12       30.00S
N.O. DOWNTOWN*   N/A     77  72  83 W3        30.00S
SLIDELL        CLOUDY    76  73  91 CALM      29.99S
BATON ROUGE    CLOUDY    73  71  93 W7        30.01S
BOOTHVILLE     CLOUDY    79  76  90 W6        30.00R
BELLE CHASSE   LGT RAIN  78  74  87 CALM      29.99S
BOGALUSA*      RAIN      76  72  87 CALM      30.02F
GALLIANO*      NOT AVBL
NEW ROADS*     LGT RAIN  73  73  97 S3        30.02R
GONZALES*      LGT RAIN  72  72 100 CALM      30.00S
HAMMOND*       MOCLDY    75  72  88 W3        30.01F
HOUMA*         RAIN      77  73  87 CALM      29.99F
PORT FOURCHON* NOT AVBL

$$

MSZ070-080>082-170200-
SOUTHERN MISSISSIPPI

CITY           SKY/WX    TMP DP  RH WIND       PRES   REMARKS
MCCOMB         CLOUDY    74  73  97 SE5       30.03R
GULFPORT       LGT RAIN  75  72  90 E7        30.02R
BILOXI         LGT RAIN  76  73  90 S7        30.02R
PASCAGOULA     CLOUDY    74  72  93 W3        30.01R
STENNIS ARPT*  PTCLDY    73  70  88 CALM      30.00F

$$

COASTAL OBSERVATIONS
LAKE AND NEARSHORE STATIONS

STATION/POSITION TIME  TEMP    WIND        PRES    WAVE
                       AIR SEA DIR/SP/G            HT/PER
                 (UTC) (F)     (DEG/KT/KT) (MB)    (FT/S)
PASCAGOULA       0100   78     180/  8/ 10 1015.5
WAVELAND YACHT   0100   75      CALM  /  2 1015.2
GRAND ISLE       0100   81 85  280/ 10/ 13 1016.0
SOUTHWEST PASS   0100   81 91  270/ 17/ 19 1015.9
NEW CANAL        0100   79 83  260/  5/  6 1016.1
SHELL BEACH      0100   78 80  260/  6/  7 1015.6

OFFSHORE STATIONS

STATION/POSITION TIME  TEMP    WIND        PRES    WAVE
                       AIR SEA DIR/SP/G            HT/PER
                 (UTC) (F)     (DEG/KT/KT) (MB)    (FT/S)

$$




USA.gov is the U.S. government's official web portal to all federal, state and local government web resources and services.